Weather in Kochevaya

Russia / Khanty-Mansi Autonomous Okrug — Yugra     62°26′48″N   73°06′42″E
temp.,
°C
wind,
m/s
gust,
m/s
humid.,
%
clouds,
%
prec.,
mm/h
press.,
hPa
HPBL,
m
17 may, mon
mon1723:00+5se3387100 0.0 101662
02:00+5se3487100 0.0 1015106
05:00+5se4688100 0.3 1013168
08:00+6ese5996100 2.8 1011234
11:00+7e5792100 3.1 1011323
14:00+7e6891100 0.1 1011299
17:00+7e6788100 0.2 1010361
20:00+6ene61094100 0.1 1010402
18 may, tue
tue1823:00+6ne5990100 0.1 1011314
02:00+6ne5888100 0.0 1012271
05:00+6ne597572 0.0 1014298
08:00+8ne6847100 0.0 1015544
11:00+10ne663893 0.0 10171282
14:00+12nne663518 0.0 10181885
17:00+12nne673436 0.0 10192075
20:00+10n574294 0.0 1020700
19 may, wed
wed1923:00+7nnw610525 0.0 1021304
02:00+4ne6107129 0.0 1023412
05:00+4ne676448 0.0 1025649
08:00+4ne56465 0.0 10261175
11:00+6nne66365 0.0 10261580
14:00+8nne5632100 0.0 10261768
17:00+8nne5531100 0.0 10251682
20:00+7ne3334100 0.0 10251243
20 may, thu
thu2023:00+6se2342100 0.0 1024192
02:00+5s5650100 0.1 1022922
05:00+1s81399100 2.9 1018427
08:00+2s91597100 3.9 1015514
11:00+3sse71195100 8.3 1013434
14:00+4sse81193100 0.6 1012220
17:00+8sse4482100 0.6 1013245
20:00+7sse3488100 0.0 1014102
21 may, fri
fri2123:00+5s34946 0.0 101456
02:00+7ssw3596100 0.1 101270
05:00+12w6139561 0.9 1010208
08:00+18nw586859 0.5 1010433
11:00+22wnw475348 0.6 1010771
14:00+25nw684231 0.0 10101417
17:00+26nnw61041100 0.0 10102109
20:00+23nw335235 0.0 101121